[Iaude] MPEC F139: 2019 FE1 [a=1.38,e=0.55,i=34.0,H=20.3]

mpec at mpcdb1.cfa.harvard.edu mpec at mpcdb1.cfa.harvard.edu
Sun Mar 31 18:01:16 EDT 2019


M.P.E.C. 2019-F139                               Issued 2019 Mar. 31, 21:58 UT
 
     The Minor Planet Electronic Circulars contain information on unusual
         minor planets and routine data on comets.  They are published
    on behalf of Division F of the International Astronomical Union by the
          Minor Planet Center, Smithsonian Astrophysical Observatory,
                          Cambridge, MA 02138, U.S.A.

             Prepared using the Tamkin Foundation Computer Network

                              MPC at CFA.HARVARD.EDU
            URL https://www.minorplanetcenter.net/    ISSN 1523-6714


                                   2019 FE1
 
Observations:
     K19F01E* C2019 03 28.33853 10 27 59.398+05 50 04.38         21.3 wUEF139F51
     K19F01E  C2019 03 28.35065 10 27 56.796+05 49 56.88         21.6 wUEF139F51
     K19F01E  C2019 03 28.35274 10 27 56.328+05 49 55.73         21.4 wUEF139F51
     K19F01E  C2019 03 28.36493 10 27 53.728+05 49 48.39         21.3 wUEF139F51
     K19F01E  C2019 03 28.37716 10 27 51.128+05 49 40.83         22.2 wUEF139F51
     K19F01E KC2019 03 28.89044610 26 04.06 +05 44 22.3          21.3 GVEF139L01
     K19F01E FC2019 03 28.89126010 26 04.06 +05 44 20.5          21.3 GVEF139J95
     K19F01E KC2019 03 28.89551710 26 03.01 +05 44 18.9          21.5 GVEF139L01
     K19F01E KC2019 03 28.92488510 25 56.83 +05 43 59.9          21.3 GVEF139J95
     K19F01E KC2019 03 28.92587710 25 56.61 +05 44 00.1          21.5 GVEF139L01
     K19F01E KC2019 03 28.93561910 25 54.52 +05 43 54.3          21.3 GVEF139L01
     K19F01E KC2019 03 28.93833910 25 53.96 +05 43 52.9          21.5 GVEF139L01
     K19F01E KC2019 03 29.11722 10 25 17.37 +05 42 05.4                oEF139711
     K19F01E KC2019 03 29.12079 10 25 16.63 +05 42 03.0                oEF139711
     K19F01E KC2019 03 29.12442 10 25 15.89 +05 42 00.8                oEF139711
     K19F01E  C2019 03 29.13807 10 25 13.00 +05 41 52.2          21.5 GVEF139V06
     K19F01E  C2019 03 29.13985 10 25 12.66 +05 41 51.1          21.3 GVEF139V06
     K19F01E  C2019 03 29.14164 10 25 12.26 +05 41 49.8          21.3 GVEF139V06
     K19F01E  C2019 03 29.14343 10 25 11.89 +05 41 48.7          21.3 GVEF139V06
     K19F01E KC2019 03 30.14283 10 21 45.84 +05 31 25.2                oEF139711
     K19F01E KC2019 03 30.14617 10 21 45.11 +05 31 22.9                oEF139711
     K19F01E KC2019 03 30.14951 10 21 44.40 +05 31 21.1                oEF139711
     K19F01E KC2019 03 31.20779 10 18 09.11 +05 20 05.0          20.9 RoEF139291
     K19F01E KC2019 03 31.21303 10 18 08.02 +05 20 01.9          21.2 RoEF139291
     K19F01E KC2019 03 31.21496 10 18 07.42 +05 19 59.1                UEF139734
     K19F01E KC2019 03 31.22575 10 18 05.39 +05 19 53.8          21.1 RoEF139291
     K19F01E KC2019 03 31.23174 10 18 04.15 +05 19 49.7          21.6 RoEF139291
     K19F01E KC2019 03 31.24625 10 18 01.06 +05 19 38.5          21.2 GUEF139734
     K19F01E KC2019 03 31.26189 10 17 57.79 +05 19 28.5          21.1 GUEF139734
 
Observer details:
291 LPL/Spacewatch II.  Observer R. A. Mastaler.  1.8-m f/2.7 reflector + CCD.
711 McDonald Observatory, Fort Davis.  Observer J. G. Ries.  2.1-m reflector
    + CCD + focal reducer.
734 Farpoint Observatory, Eskridge.  Observers G. Hug, R. Soldani,
    J. Prochaska.  Measurer G. Hug.  0.69-m reflector + CCD.
F51 Pan-STARRS 1, Haleakala.  Observers J. Bulger, T. Lowe, A. Schultz,
    M. Willman.  Measurers K. Chambers, S. Chastel, T. de Boer, L. Denneau,
    J. Fairlamb, H. Flewelling, M. Huber, C.-C. Lin, E. Magnier,
    Y. Ramanjooloo, R. Wainscoat, R. Weryk.  1.8-m Ritchey-Chretien + CCD.
J95 Great Shefford.  Observer P. Birtwhistle.  0.41-m f/6.3
    Schmidt-Cassegrain + CCD.
L01 Visnjan Observatory, Tican.  Observers K. Korlevic, J. Maras.  Measurer
    K. Korlevic.  1.0-m f/2.9 reflector + CCD.
V06 Catalina Sky Survey-Kuiper.  Observer H. Groeller.  Measurers
    B. M. Africano, E. J. Christensen, G. A. Farneth, D. C. Fuls, A. R. Gibbs,
    A. D. Grauer, H. Groeller, R. A. Kowalski, S. M. Larson, G. J. Leonard,
    T. A. Pruyne, R. L. Seaman, F. C. Shelly.  1.55-m reflector + CCD.
 
Orbital elements:
2019 FE1                                                 Earth MOID = 0.2991 AU
Epoch 2019 Apr. 27.0 TT = JDT 2458600.5                 MPC
M 299.30207              (2000.0)            P               Q
n   0.60825612     Peri.  320.38252     +0.69562758     +0.71477189
a   1.3795742      Node   352.58425     -0.43054268     +0.33440641
e   0.5507092      Incl.   33.97894     -0.57509589     +0.61422593
P   1.62           H   20.3           G   0.15           U   9
Residuals in seconds of arc
190328 F51  0.1+  0.2+    190328 L01  0.4+  0.3-    190330 711  0.5+  0.0
190328 F51  0.1+  0.1+    190328 L01  0.7+  0.0     190330 711  0.3+  0.3+
190328 F51  0.2-  0.2+    190329 711  0.1+  0.0     190331 291  0.1+  0.1-
190328 F51  0.0   0.2+    190329 711  0.3+  0.2-    190331 291  0.1-  0.2+
190328 F51  0.3+  0.1+    190329 711  0.7+  0.1-    190331 734  0.4-  0.0
190328 L01  0.0   0.1-    190329 V06  0.4-  0.1+    190331 291  0.2-  0.3+
190328 J95  0.4+  0.4-    190329 V06  0.2+  0.0     190331 291  0.3-  0.1+
190328 L01  0.4+  0.4-    190329 V06  0.1-  0.2-    190331 734  0.7+  0.3-
190328 J95  1.4-  0.3-    190329 V06  0.0   0.2-    190331 734  0.2-  0.2-
190328 L01  0.9+  0.5-    190330 711  1.0+  0.2+

Ephemeris:
2019 FE1                 a,e,i = 1.38, 0.55, 34                  q = 0.6198
Date    TT    R. A. (2000) Decl.     Delta      r     Elong.  Phase     V
2019 03 01    11 59 03.2 +08 43 17   0.8151  1.7833   161.8    10.0    21.8
...
2019 03 16    11 12 11.8 +07 33 56   0.7098  1.6991   170.9     5.3    21.1
...
2019 03 24    10 43 25.0 +06 31 35   0.6860  1.6502   157.0    13.6    21.4
...
2019 03 30    10 22 15.0 +05 33 01   0.6824  1.6115   146.3    20.1    21.5
2019 03 31    10 18 51.2 +05 22 25   0.6829  1.6049   144.6    21.1    21.5
2019 04 01    10 15 30.5 +05 11 36   0.6837  1.5983   142.8    22.2    21.6
...
2019 04 07    09 56 43.1 +04 02 58   0.6940  1.5575   132.7    28.2    21.7
...
2019 04 15    09 35 47.5 +02 24 18   0.7192  1.5004   120.3    35.3    21.9
...
2019 04 30    09 09 54.1 -00 51 20   0.7834  1.3853   100.6    45.6    22.2

A. U. Tomatic                (C) Copyright 2019 MPC           M.P.E.C. 2019-F139



More information about the Iaude mailing list